Change the Weather History Date:

Thursday, January 29, 2015

  Actual Average Record
Temperature  
Mean Temperature 42 °F 46 °F  
Max Temperature 50 °F 52 °F 70 °F (1932)
Min Temperature 34 °F 39 °F 18 °F (1897)
Degree Days  
Heating Degree Days 23 19  
Month to date heating degree days 520 572  
Since 1 July heating degree days 1383 1379  
Cooling Degree Days 0 0  
Month to date cooling degree days 2 0  
Year to date cooling degree days 2 0  
Moisture  
Dew Point 26 °F    
Average Humidity 57    
Maximum Humidity 69    
Minimum Humidity 44    
Precipitation  
Precipitation 0.01 in 0.17 in 1.62 in (1966)
Month to date precipitation 4.61 4.91  
Year to date precipitation 4.61 4.91  
Snow  
Snow 0.00 in - - ()
Month to date snowfall T  
Since 1 July snowfall T  
Snow Depth 0.00 in    
Sea Level Pressure  
Sea Level Pressure 30.26 in    
Wind  
Wind Speed 6 mph (West)    
Max Wind Speed 13 mph    
Max Gust Speed 18 mph    
Visibility 10 miles    
Events Rain    
T = Trace of Precipitation, MM = Missing Value Source: NWS Daily Summary

Daily Weather History Graph

Daily Weather History Graph

Search for Another Location

Airport or City:

Trip Planner

Search our weather history database for the weather conditions in past years. The results will help you decide how hot, cold, wet, or windy it might be!

Date:

Astronomy

Jan. 29, 2015 Rise Set
Actual Time 7:04 AM EST 5:27 PM EST
Civil Twilight 6:37 AM EST 5:54 PM EST
Nautical Twilight 6:06 AM EST 6:24 PM EST
Astronomical Twilight 5:36 AM EST 6:54 PM EST
Moon 1:14 PM EST (1/29) 2:33 AM EST (1/29)
Length of Visible Light 11h 17m
Length of Day
10h 23m
Waxing Gibbous, 75% of the Moon is Illuminated
Jan 29
Waxing Gibbous
Feb 3
Full
Feb 11
Last Quarter
Feb 18
New
Feb 25
First Quarter

Hourly Weather History & Observations

Time (EST) Temp. Windchill Dew Point Humidity Pressure Visibility Wind Dir Wind Speed Gust Speed Precip Events Conditions
12:51 AM 36.0 °F 32.1 °F 16.0 °F 44% 30.31 in 10.0 mi Variable 4.6 mph - N/A   Clear
1:51 AM 35.1 °F 31.0 °F 21.9 °F 59% 30.32 in 10.0 mi Variable 4.6 mph - N/A   Clear
2:51 AM 34.0 °F 28.8 °F 23.0 °F 64% 30.31 in 10.0 mi Variable 5.8 mph - N/A   Clear
3:51 AM 34.0 °F 28.0 °F 24.1 °F 67% 30.30 in 10.0 mi North 6.9 mph - N/A   Clear
4:51 AM 34.0 °F 28.8 °F 23.0 °F 64% 30.30 in 10.0 mi Variable 5.8 mph - N/A   Clear
5:51 AM 34.0 °F 28.0 °F 21.0 °F 59% 30.30 in 10.0 mi NNE 6.9 mph - N/A   Clear
6:51 AM 34.0 °F 28.0 °F 21.0 °F 59% 30.33 in 10.0 mi Variable 6.9 mph - N/A   Clear
7:51 AM 35.1 °F 28.6 °F 21.9 °F 59% 30.35 in 10.0 mi North 8.1 mph - N/A   Clear
8:51 AM 37.9 °F 32.7 °F 25.0 °F 60% 30.36 in 10.0 mi North 6.9 mph - N/A   Clear
9:51 AM 37.9 °F 35.5 °F 25.0 °F 60% 30.37 in 10.0 mi Variable 3.5 mph - N/A   Clear
10:51 AM 39.9 °F 36.7 °F 23.0 °F 51% 30.36 in 10.0 mi Variable 4.6 mph - N/A   Clear
11:51 AM 39.9 °F 36.7 °F 24.1 °F 53% 30.32 in 10.0 mi Variable 4.6 mph - N/A   Clear
12:51 PM 39.9 °F 36.7 °F 23.0 °F 51% 30.28 in 10.0 mi Variable 4.6 mph - N/A   Clear
1:51 PM 39.9 °F 36.7 °F 25.0 °F 55% 30.25 in 10.0 mi Variable 4.6 mph - N/A   Clear
2:51 PM 37.9 °F 33.5 °F 26.1 °F 62% 30.25 in 10.0 mi WNW 5.8 mph - N/A   Clear
3:51 PM 39.0 °F 34.8 °F 24.1 °F 55% 30.24 in 10.0 mi WNW 5.8 mph - N/A   Clear
4:51 PM 37.9 °F 35.5 °F 25.0 °F 60% 30.23 in 10.0 mi West 3.5 mph - N/A   Clear
5:51 PM 37.0 °F 34.5 °F 25.0 °F 62% 30.24 in 10.0 mi WSW 3.5 mph - N/A   Clear
6:51 PM 39.0 °F 33.4 °F 26.1 °F 60% 30.19 in 10.0 mi South 8.1 mph - N/A   Clear
7:51 PM 41.0 °F 35.8 °F 27.0 °F 57% 30.19 in 10.0 mi SSW 8.1 mph - N/A   Scattered Clouds
8:51 PM 45.0 °F 41.2 °F 34.0 °F 65% 30.16 in 10.0 mi SW 6.9 mph - N/A   Overcast
9:51 PM 48.0 °F - 37.9 °F 68% 30.14 in 10.0 mi WSW 10.4 mph - N/A   Overcast
10:51 PM 48.9 °F - 39.9 °F 71% 30.11 in 10.0 mi WSW 9.2 mph - 0.00 in Rain Light Rain
11:51 PM 50.0 °F - 43.0 °F 77% 30.10 in 10.0 mi WSW 11.5 mph - 0.00 in Rain Light Rain